Regional Weather Roundup
Issued by NWS State College, PA

Home | Current Version | Previous Version | Graphics & Text | Print | Product List | Glossary Off
Versions: 1 2 3 4 5 6 7 8 9 10 11 12 13 14 15 16 17 18 19 20 21 22 23 24 25 26 27 28 29 30 31 32 33 34 35 36 37 38 39 40 41 42 43 44 45 46 47 48 49 50

000
ASUS41 KCTP 181103
RWRCTP

REGIONAL WEATHER ROUNDUP
NATIONAL WEATHER SERVICE STATE COLLEGE PA
600 AM EST MON DEC 18 2017

Note: "fair" indicates few or no clouds below 12,000 feet with no
significant weather and/or obstructions to visibility.

* = STATION THAT DOES NOT REPORT PRECIPITATION /E.G. RAIN...SNOW...ETC/
    THUNDER OR FOG.

PAZ002>004-007>009-013>016-020>023-029>032-181200-
WESTERN PENNSYLVANIA

CITY           SKY/WX    TMP DP  RH WIND       PRES   REMARKS
ERIE           CLOUDY    39  31  72 S16       30.00F
MEADVILLE      CLOUDY    35  31  85 S7        30.02R
FRANKLIN*      CLOUDY    35  30  82 SW8       30.03R
NEW CASTLE     CLOUDY    36  32  85 S6        30.06S
BEAVER COUNTY  NOT AVBL
BUTLER*        CLOUDY    36  31  82 S5        30.06S
PITTSBURGH INT CLOUDY    38  33  82 SW7       30.05S
PITTSBURGH     CLOUDY    36  30  79 S8        30.06R
INDIANA*       MOCLDY    36  32  87 CALM      30.09S
LATROBE        CLOUDY    37  34  87 S9        30.08S
WASHINGTON CO* CLOUDY    38  34  85 SW5       30.10S
$$

PAZ004>006-010>012-017>019-024>028-033>037-041-042-045-046-049>053-181200-
CENTRAL PENNSYLVANIA

CITY           SKY/WX    TMP DP  RH WIND       PRES   REMARKS
BRADFORD       CLOUDY    34  33  96 SW6       30.00R FOG
DUBOIS         CLOUDY    34  30  85 SW8       30.02S
CLEARFIELD     CLOUDY    32  32 100 SW5       30.05R FOG
JOHNSTOWN      CLEAR     34  29  82 SW8       30.02S
ALTOONA        CLOUDY    35  32  88 SW3       30.06R FOG
STATE COLLEGE  PTCLDY    32  30  93 CALM      30.05F
WILLIAMSPORT   CLOUDY    37  28  70 NE3       30.08S
SELINSGROVE    CLOUDY    32  30  92 CALM      30.10S
FT INDIANTOWN  CLOUDY    32  31  99 CALM      30.10F
CAPITAL CITY   CLOUDY    36  27  69 CALM      30.12R
HARRISBURG     CLOUDY    33  29  85 NW3       30.11S
YORK           CLOUDY    30  29  96 CALM      30.09F FOG
$$

PAZ038>040-043-044-047-048-054-055-060>062-067>071-181200-
EASTERN PENNSYLVANIA

CITY           SKY/WX    TMP DP  RH WIND       PRES   REMARKS
SCRANTON       CLOUDY    32  28  85 CALM      30.07F
MOUNT POCONO   CLOUDY    32  32 100 S7        30.04S FOG
ALLENTOWN      CLOUDY    36  28  73 SE3       30.12F
QUAKERTOWN*    CLOUDY    34  32  93 CALM      30.12S
READING        CLOUDY    34  31  88 N3        30.11S
LANCASTER      CLOUDY    33  31  92 E5        30.10F
COATESVILLE    PTSUNNY   34  32  93 CALM      30.11S
POTTSTOWN      CLOUDY    35  31  85 CALM      30.13S
BLUE BELL      CLOUDY    34  32  93 CALM      30.13S
DOYLESTOWN     CLOUDY    34  30  85 N6        30.11S
WILLOW GROVE   NOT AVBL
NORTH PHILA    CLOUDY    39  34  82 N5        30.14S
PHILADELPHIA   CLOUDY    39  35  86 CALM      30.13F
$$




USA.gov is the U.S. government's official web portal to all federal, state and local government web resources and services.